TimeCST,TemperatureF,Dew PointF,Humidity,Sea Level PressureIn,VisibilityMPH,Wind Direction,Wind SpeedMPH,Gust SpeedMPH,PrecipitationIn,Events,Conditions,WindDirDegrees,DateUTC
12:53 AM,37.9,30.0,73,29.85,10.0,SW,6.9,-,N/A,,Clear,230,2013-11-15 06:53:00
1:53 AM,37.9,30.0,73,29.84,10.0,WSW,4.6,-,N/A,,Unknown,250,2013-11-15 07:53:00
2:53 AM,33.1,28.0,82,29.84,10.0,Calm,Calm,-,N/A,,Unknown,0,2013-11-15 08:53:00
3:53 AM,30.9,27.0,85,29.83,10.0,East,3.5,-,N/A,,Clear,100,2013-11-15 09:53:00
4:53 AM,27.0,25.0,92,29.82,10.0,East,5.8,-,N/A,,Unknown,90,2013-11-15 10:53:00
5:53 AM,28.0,26.1,92,29.80,10.0,SE,6.9,-,N/A,,Unknown,130,2013-11-15 11:53:00
6:53 AM,27.0,25.0,92,29.80,10.0,SE,5.8,-,N/A,,Unknown,140,2013-11-15 12:53:00
7:53 AM,30.9,28.0,89,29.80,10.0,SSE,5.8,-,N/A,,Clear,150,2013-11-15 13:53:00
8:53 AM,33.1,30.0,89,29.79,10.0,SSE,8.1,-,N/A,,Unknown,160,2013-11-15 14:53:00
9:53 AM,41.0,35.1,79,29.78,10.0,SSE,8.1,-,N/A,,Clear,160,2013-11-15 15:53:00
10:53 AM,48.9,37.9,66,29.75,10.0,South,11.5,-,N/A,,Clear,170,2013-11-15 16:53:00
11:53 AM,53.1,39.0,59,29.71,-9999.0,North,-9999.0,-,N/A,,Unknown,0,2013-11-15 17:53:00
12:53 PM,57.9,37.9,47,29.67,10.0,South,18.4,24.2,N/A,,Clear,190,2013-11-15 18:53:00
1:53 PM,57.0,36.0,45,29.63,10.0,South,20.7,25.3,N/A,,Scattered Clouds,170,2013-11-15 19:53:00
2:53 PM,57.9,36.0,44,29.60,10.0,SSE,24.2,33.4,N/A,,Mostly Cloudy,160,2013-11-15 20:53:00
3:53 PM,57.0,32.0,39,29.58,10.0,SSE,18.4,29.9,N/A,,Clear,160,2013-11-15 21:53:00
4:53 PM,53.1,34.0,48,29.57,10.0,SSE,17.3,-,N/A,,Clear,160,2013-11-15 22:53:00
5:53 PM,48.9,34.0,56,29.57,10.0,SE,13.8,-,N/A,,Clear,140,2013-11-15 23:53:00
6:53 PM,46.9,36.0,66,29.57,10.0,SSE,17.3,-,N/A,,Clear,160,2013-11-16 00:53:00
7:53 PM,46.0,36.0,68,29.55,10.0,SSE,16.1,-,N/A,,Clear,150,2013-11-16 01:53:00
8:53 PM,45.0,35.1,68,29.52,10.0,SSE,16.1,-,N/A,,Clear,160,2013-11-16 02:53:00
9:53 PM,44.1,35.1,71,29.51,10.0,SSE,17.3,-,N/A,,Clear,160,2013-11-16 03:53:00
10:53 PM,43.0,35.1,74,29.49,10.0,South,17.3,-,N/A,,Clear,170,2013-11-16 04:53:00
11:53 PM,39.9,34.0,79,29.48,10.0,SSE,11.5,-,N/A,,Clear,160,2013-11-16 05:53:00